Location: Navajo
(48.7922°N, 105.0603°W)
Time: 20:27:27
(UTC+00:00)

CUBESAT XI-V - Visible Passes

Search period start: 26 June 2022 00:00
Search period end: 06 July 2022 00:00
Orbit: 666 x 692 km, 98.1° (Epoch: 26 June)

Date Brightness Start Highest point End Pass type
(mag) Time Alt. Az. Time Alt. Az. Time Alt. Az.
26 Jun ? 08:10:05 14° SE 08:13:56 53° ENE 08:18:25 10° N visible
26 Jun ? 09:48:28 11° SW 09:51:32 20° W 09:54:57 10° NW visible
27 Jun ? 07:09:46 10° E 07:12:40 17° ENE 07:15:33 10° NNE visible
27 Jun ? 08:46:02 18° S 08:49:25 74° WSW 08:54:02 10° NNW visible
28 Jun ? 07:43:47 10° SE 07:47:50 31° ENE 07:51:53 10° N visible
28 Jun ? 09:21:58 16° SSW 09:25:04 34° W 09:29:17 10° NNW visible
29 Jun ? 06:46:10 10° ENE 06:46:47 10° NE 06:47:24 10° NE visible
29 Jun ? 08:19:32 16° SSE 08:23:10 64° ENE 08:27:44 10° N visible
29 Jun ? 09:57:57 10° SW 10:00:54 17° W 10:03:51 10° NW visible
30 Jun ? 07:18:33 10° ESE 07:21:49 20° ENE 07:25:06 10° NNE visible
30 Jun ? 08:55:28 19° S 08:58:42 60° WSW 09:03:16 10° NNW visible
01 Jul ? 07:53:02 11° SE 07:57:02 37° ENE 08:01:16 10° N visible
01 Jul ? 09:31:26 15° SW 09:34:24 28° W 09:38:22 10° NW visible
02 Jul ? 06:54:05 10° ENE 06:55:53 12° NE 06:57:42 10° NNE visible
02 Jul ? 08:28:59 18° SSE 08:32:25 78° ENE 08:37:01 10° NNW visible
02 Jul ? 10:07:57 10° WSW 10:10:16 14° W 10:12:35 10° WNW visible
03 Jul ? 07:27:24 10° ESE 07:30:58 23° ENE 07:34:33 10° N visible
03 Jul ? 09:04:56 19° SSW 09:07:58 49° W 09:12:26 10° NNW visible
04 Jul ? 08:02:29 14° SE 08:06:13 45° ENE 08:10:36 10° N visible
04 Jul ? 09:40:53 14° SW 09:43:43 23° W 09:47:24 10° NW visible
05 Jul ? 07:02:33 10° E 07:05:00 14° ENE 07:07:27 10° NNE visible
05 Jul ? 08:38:26 20° SSE 08:41:39 86° WSW 08:46:16 10° NNW visible
05 Jul ? 10:18:21 10° WSW 10:19:38 11° W 10:20:56 10° WNW visible
